Time,TemperatureF,DewpointF,PressureIn,WindDirection,WindDirectionDegrees,WindSpeedMPH,WindSpeedGustMPH,Humidity,HourlyPrecipIn,Conditions,Clouds,dailyrainin,SoftwareType,DateUTC
2013-04-10 00:05:00,60.9,60.0,30.13,SW,216,5.0,9.0,96,0.00,,,0.00,weatherlink.com 1.10,2013-04-10 04:05:00,
2013-04-10 00:20:00,60.8,60.0,30.13,West,263,6.0,10.0,96,0.00,,,0.00,weatherlink.com 1.10,2013-04-10 04:20:00,
2013-04-10 00:35:00,60.7,60.0,30.13,SW,236,6.0,12.0,96,0.00,,,0.00,weatherlink.com 1.10,2013-04-10 04:35:00,
2013-04-10 00:50:00,60.3,59.0,30.13,SW,236,5.0,9.0,96,0.00,,,0.00,weatherlink.com 1.10,2013-04-10 04:50:00,
2013-04-10 01:05:00,60.3,59.0,30.13,West,261,8.0,10.0,96,0.00,,,0.00,weatherlink.com 1.10,2013-04-10 05:05:00,
2013-04-10 01:20:00,60.5,60.0,30.12,WSW,244,6.0,11.0,97,0.00,,,0.00,weatherlink.com 1.10,2013-04-10 05:20:00,
2013-04-10 01:35:00,60.4,59.0,30.12,WSW,240,7.0,8.0,96,0.00,,,0.00,weatherlink.com 1.10,2013-04-10 05:35:00,
2013-04-10 01:50:00,60.0,59.0,30.12,WSW,246,5.0,8.0,97,0.00,,,0.00,weatherlink.com 1.10,2013-04-10 05:50:00,
2013-04-10 02:05:00,59.9,59.0,30.11,WSW,244,4.0,8.0,97,0.00,,,0.00,weatherlink.com 1.10,2013-04-10 06:05:00,
2013-04-10 02:20:00,60.0,59.0,30.11,WSW,238,9.0,10.0,97,0.00,,,0.00,weatherlink.com 1.10,2013-04-10 06:20:00,
2013-04-10 02:35:00,60.1,59.0,30.10,West,271,5.0,9.0,97,0.00,,,0.00,weatherlink.com 1.10,2013-04-10 06:35:00,
2013-04-10 02:50:00,60.1,59.0,30.10,WSW,252,8.0,10.0,97,0.00,,,0.00,weatherlink.com 1.10,2013-04-10 06:50:00,
2013-04-10 03:05:00,60.2,59.0,30.09,WSW,254,6.0,11.0,97,0.00,,,0.00,weatherlink.com 1.10,2013-04-10 07:05:00,
2013-04-10 03:20:00,60.1,59.0,30.09,WSW,250,7.0,10.0,97,0.00,,,0.00,weatherlink.com 1.10,2013-04-10 07:20:00,
2013-04-10 03:35:00,60.1,59.0,30.09,WSW,254,6.0,9.0,97,0.00,,,0.00,weatherlink.com 1.10,2013-04-10 07:35:00,
2013-04-10 03:50:00,60.3,60.0,30.09,WSW,254,5.0,10.0,97,0.00,,,0.00,weatherlink.com 1.10,2013-04-10 07:50:00,
2013-04-10 04:05:00,60.3,60.0,30.09,WSW,245,4.0,12.0,97,0.00,,,0.00,weatherlink.com 1.10,2013-04-10 08:05:00,
2013-04-10 04:20:00,60.3,60.0,30.09,WSW,257,7.0,11.0,97,0.00,,,0.00,weatherlink.com 1.10,2013-04-10 08:20:00,
2013-04-10 04:35:00,60.4,60.0,30.10,WSW,242,10.0,11.0,97,0.00,,,0.00,weatherlink.com 1.10,2013-04-10 08:35:00,
2013-04-10 04:50:00,60.2,59.0,30.10,WSW,257,4.0,13.0,97,0.00,,,0.00,weatherlink.com 1.10,2013-04-10 08:50:00,
2013-04-10 05:05:00,60.9,60.0,30.10,West,264,7.0,12.0,98,0.00,,,0.00,weatherlink.com 1.10,2013-04-10 09:05:00,
2013-04-10 05:20:00,60.0,59.0,30.10,WSW,249,6.0,13.0,97,0.00,,,0.00,weatherlink.com 1.10,2013-04-10 09:20:00,
2013-04-10 05:35:00,60.1,59.0,30.11,West,269,3.0,10.0,97,0.00,,,0.00,weatherlink.com 1.10,2013-04-10 09:35:00,
2013-04-10 05:50:00,60.1,60.0,30.11,West,269,4.0,6.0,98,0.00,,,0.00,weatherlink.com 1.10,2013-04-10 09:50:00,
2013-04-10 06:05:00,60.1,60.0,30.11,West,262,4.0,5.0,98,0.00,,,0.00,weatherlink.com 1.10,2013-04-10 10:05:00,
2013-04-10 06:20:00,60.4,60.0,30.12,WSW,251,1.0,4.0,98,0.00,,,0.00,weatherlink.com 1.10,2013-04-10 10:20:00,
2013-04-10 06:35:00,59.6,59.0,30.12,WSW,256,0.0,4.0,98,0.00,,,0.00,weatherlink.com 1.10,2013-04-10 10:35:00,
2013-04-10 06:51:00,59.3,59.0,30.13,WSW,256,2.0,3.0,97,0.00,,,0.00,weatherlink.com 1.10,2013-04-10 10:51:00,
2013-04-10 07:06:00,58.9,58.0,30.13,WSW,248,4.0,7.0,98,0.00,,,0.00,weatherlink.com 1.10,2013-04-10 11:06:00,
2013-04-10 07:21:00,60.0,60.0,30.13,WSW,246,3.0,5.0,98,0.00,,,0.00,weatherlink.com 1.10,2013-04-10 11:21:00,
2013-04-10 07:36:00,59.9,59.0,30.14,WSW,254,6.0,8.0,97,0.00,,,0.00,weatherlink.com 1.10,2013-04-10 11:36:00,
2013-04-10 08:06:00,59.7,59.0,30.14,WSW,254,2.0,8.0,98,0.00,,,0.00,weatherlink.com 1.10,2013-04-10 12:06:00,
2013-04-10 08:21:00,59.9,59.0,30.14,WSW,250,4.0,7.0,98,0.00,,,0.00,weatherlink.com 1.10,2013-04-10 12:21:00,
2013-04-10 08:36:00,61.8,61.0,30.14,WSW,247,4.0,6.0,98,0.00,,,0.00,weatherlink.com 1.10,2013-04-10 12:36:00,
2013-04-10 09:06:00,65.1,65.0,30.14,West,269,3.0,7.0,98,0.00,,,0.00,weatherlink.com 1.10,2013-04-10 13:06:00,
2013-04-10 09:36:00,65.2,63.0,30.15,SW,236,4.0,8.0,92,0.00,,,0.00,weatherlink.com 1.10,2013-04-10 13:36:00,
2013-04-10 09:51:00,62.7,61.0,30.15,SW,236,7.0,9.0,93,0.00,,,0.00,weatherlink.com 1.10,2013-04-10 13:51:00,
2013-04-10 10:06:00,63.4,62.0,30.15,WSW,238,4.0,8.0,94,0.00,,,0.00,weatherlink.com 1.10,2013-04-10 14:06:00,
2013-04-10 10:21:00,62.9,61.0,30.15,SSW,207,5.0,9.0,92,0.00,,,0.00,weatherlink.com 1.10,2013-04-10 14:21:00,
2013-04-10 10:36:00,62.9,61.0,30.15,SW,231,2.0,11.0,93,0.00,,,0.00,weatherlink.com 1.10,2013-04-10 14:36:00,
2013-04-10 10:51:00,63.7,61.0,30.15,SW,230,3.0,10.0,92,0.00,,,0.00,weatherlink.com 1.10,2013-04-10 14:51:00,
2013-04-10 11:06:00,63.6,61.0,30.15,WSW,245,5.0,8.0,92,0.00,,,0.00,weatherlink.com 1.10,2013-04-10 15:06:00,
2013-04-10 11:21:00,63.6,61.0,30.14,SSW,202,6.0,12.0,92,0.00,,,0.00,weatherlink.com 1.10,2013-04-10 15:21:00,
2013-04-10 11:36:00,64.0,61.0,30.14,SSW,209,12.0,13.0,90,0.00,,,0.00,weatherlink.com 1.10,2013-04-10 15:36:00,
2013-04-10 12:06:00,64.7,62.0,30.14,SW,215,12.0,16.0,90,0.00,,,0.00,weatherlink.com 1.10,2013-04-10 16:06:00,
2013-04-10 12:21:00,64.1,61.0,30.13,SSW,202,12.0,17.0,90,0.00,,,0.00,weatherlink.com 1.10,2013-04-10 16:21:00,
2013-04-10 12:36:00,63.9,61.0,30.13,SW,225,12.0,16.0,90,0.00,,,0.00,weatherlink.com 1.10,2013-04-10 16:36:00,
2013-04-10 12:51:00,64.2,62.0,30.12,SW,221,8.0,17.0,91,0.00,,,0.00,weatherlink.com 1.10,2013-04-10 16:51:00,
2013-04-10 13:06:00,64.8,62.0,30.12,WSW,239,9.0,13.0,89,0.00,,,0.00,weatherlink.com 1.10,2013-04-10 17:06:00,
2013-04-10 13:21:00,65.4,62.0,30.11,SSW,206,7.0,15.0,87,0.00,,,0.00,weatherlink.com 1.10,2013-04-10 17:21:00,
2013-04-10 14:06:00,67.3,62.0,30.10,West,259,7.0,13.0,84,0.00,,,0.00,weatherlink.com 1.10,2013-04-10 18:06:00,
2013-04-10 14:21:00,67.3,62.0,30.10,West,261,8.0,16.0,83,0.00,,,0.00,weatherlink.com 1.10,2013-04-10 18:21:00,
2013-04-10 14:36:00,67.6,62.0,30.10,WSW,254,4.0,12.0,83,0.00,,,0.00,weatherlink.com 1.10,2013-04-10 18:36:00,
2013-04-10 14:52:00,67.6,62.0,30.09,SW,236,10.0,14.0,81,0.00,,,0.00,weatherlink.com 1.10,2013-04-10 18:52:00,
2013-04-10 15:07:00,67.8,62.0,30.08,West,262,3.0,15.0,82,0.00,,,0.00,weatherlink.com 1.10,2013-04-10 19:07:00,
2013-04-10 15:22:00,67.6,62.0,30.08,SW,225,7.0,15.0,82,0.00,,,0.00,weatherlink.com 1.10,2013-04-10 19:22:00,
2013-04-10 15:37:00,67.8,62.0,30.07,West,273,5.0,17.0,82,0.00,,,0.00,weatherlink.com 1.10,2013-04-10 19:37:00,
2013-04-10 15:52:00,67.7,62.0,30.06,SW,218,5.0,17.0,82,0.00,,,0.00,weatherlink.com 1.10,2013-04-10 19:52:00,
2013-04-10 16:07:00,67.9,62.0,30.05,SSW,200,6.0,14.0,81,0.00,,,0.00,weatherlink.com 1.10,2013-04-10 20:07:00,
2013-04-10 16:22:00,67.7,62.0,30.05,WSW,248,10.0,15.0,82,0.00,,,0.00,weatherlink.com 1.10,2013-04-10 20:22:00,
2013-04-10 16:37:00,67.6,61.0,30.05,West,269,5.0,17.0,80,0.00,,,0.00,weatherlink.com 1.10,2013-04-10 20:37:00,
2013-04-10 16:52:00,67.2,62.0,30.05,WSW,244,7.0,15.0,82,0.00,,,0.00,weatherlink.com 1.10,2013-04-10 20:52:00,
2013-04-10 17:07:00,65.9,61.0,30.05,SSW,207,7.0,18.0,84,0.00,,,0.00,weatherlink.com 1.10,2013-04-10 21:07:00,
2013-04-10 17:22:00,65.0,61.0,30.05,SSW,213,8.0,17.0,87,0.00,,,0.00,weatherlink.com 1.10,2013-04-10 21:22:00,
2013-04-10 17:38:00,65.0,61.0,30.05,SW,233,7.0,16.0,87,0.00,,,0.00,weatherlink.com 1.10,2013-04-10 21:38:00,
2013-04-10 17:52:00,64.9,61.0,30.05,WSW,243,8.0,20.0,87,0.00,,,0.00,weatherlink.com 1.10,2013-04-10 21:52:00,
2013-04-10 18:07:00,64.5,61.0,30.04,WSW,244,7.0,14.0,87,0.00,,,0.00,weatherlink.com 1.10,2013-04-10 22:07:00,
2013-04-10 18:22:00,64.1,61.0,30.04,SW,230,7.0,12.0,88,0.00,,,0.00,weatherlink.com 1.10,2013-04-10 22:22:00,
2013-04-10 18:37:00,63.9,61.0,30.04,WSW,244,8.0,16.0,89,0.00,,,0.00,weatherlink.com 1.10,2013-04-10 22:37:00,
2013-04-10 18:52:00,63.8,61.0,30.04,WSW,245,6.0,14.0,89,0.00,,,0.00,weatherlink.com 1.10,2013-04-10 22:52:00,
2013-04-10 19:07:00,63.5,60.0,30.04,SW,228,6.0,15.0,89,0.00,,,0.00,weatherlink.com 1.10,2013-04-10 23:07:00,
2013-04-10 19:22:00,63.1,60.0,30.03,SW,232,3.0,15.0,90,0.00,,,0.00,weatherlink.com 1.10,2013-04-10 23:22:00,
2013-04-10 19:37:00,62.6,60.0,30.03,WSW,254,5.0,15.0,91,0.00,,,0.00,weatherlink.com 1.10,2013-04-10 23:37:00,
2013-04-10 19:52:00,62.5,60.0,30.03,SW,227,6.0,16.0,92,0.00,,,0.00,weatherlink.com 1.10,2013-04-10 23:52:00,
2013-04-10 20:07:00,62.6,60.0,30.03,WSW,239,8.0,18.0,91,0.00,,,0.00,weatherlink.com 1.10,2013-04-11 00:07:00,
2013-04-10 20:22:00,62.4,60.0,30.03,SW,232,3.0,15.0,91,0.00,,,0.00,weatherlink.com 1.10,2013-04-11 00:22:00,
2013-04-10 20:52:00,61.5,59.0,30.03,West,277,4.0,14.0,92,0.00,,,0.00,weatherlink.com 1.10,2013-04-11 00:52:00,
2013-04-10 21:07:00,61.2,59.0,30.03,WSW,254,5.0,11.0,93,0.00,,,0.00,weatherlink.com 1.10,2013-04-11 01:07:00,
2013-04-10 21:22:00,60.9,59.0,30.03,West,267,7.0,10.0,93,0.00,,,0.00,weatherlink.com 1.10,2013-04-11 01:22:00,
2013-04-10 21:37:00,60.5,59.0,30.04,West,273,5.0,9.0,93,0.00,,,0.00,weatherlink.com 1.10,2013-04-11 01:37:00,
2013-04-10 21:52:00,60.3,59.0,30.04,WSW,257,4.0,10.0,94,0.00,,,0.00,weatherlink.com 1.10,2013-04-11 01:52:00,
2013-04-10 22:07:00,60.2,59.0,30.04,West,271,4.0,9.0,94,0.00,,,0.00,weatherlink.com 1.10,2013-04-11 02:07:00,
2013-04-10 22:22:00,60.2,59.0,30.04,West,265,2.0,9.0,94,0.00,,,0.00,weatherlink.com 1.10,2013-04-11 02:22:00,
2013-04-10 22:37:00,60.3,59.0,30.04,WSW,257,3.0,9.0,94,0.00,,,0.00,weatherlink.com 1.10,2013-04-11 02:37:00,
2013-04-10 22:52:00,59.9,58.0,30.04,WSW,243,7.0,8.0,94,0.00,,,0.00,weatherlink.com 1.10,2013-04-11 02:52:00,
2013-04-10 23:37:00,59.8,58.0,30.03,SW,229,2.0,9.0,95,0.00,,,0.00,weatherlink.com 1.10,2013-04-11 03:37:00,
2013-04-10 23:52:00,60.3,59.0,30.03,West,271,6.0,9.0,95,0.00,,,0.00,weatherlink.com 1.10,2013-04-11 03:52:00,